Weather History for Pardubice, Czech Republic

Change the Weather History Date:

Thursday, May 16, 2013

  Actual Average Record
Temperature  
Mean Temperature 63 °F -  
Max Temperature 73 °F - - ()
Min Temperature 53 °F - - ()
Degree Days  
Heating Degree Days 2    
Growing Degree Days 13 (Base 50)    
Moisture  
Dew Point 50 °F    
Average Humidity 57    
Maximum Humidity 88    
Minimum Humidity 43    
Precipitation  
Precipitation 0.00 in - - ()
Sea Level Pressure  
Sea Level Pressure 29.59 in    
Wind  
Wind Speed 13 mph ()    
Max Wind Speed 24 mph    
Max Gust Speed 37 mph    
Visibility 6.2 miles    
Events      
T = Trace of Precipitation, MM = Missing Value Source: Averaged Metar Reports

Daily Weather History Graph

Daily Weather History Graph

Search for Another Location

Airport:

Trip Planner

Search our weather history database for the weather conditions in past years. The results will help you decide how hot, cold, wet, or windy it might be!

Date:

Astronomy

May. 16, 2013 Rise Set
Actual Time 5:09 AM CEST 8:38 PM CEST
Civil Twilight 4:30 AM CEST 9:17 PM CEST
Nautical Twilight 3:37 AM CEST 10:11 PM CEST
Astronomical Twilight 2:24 AM CEST 11:25 PM CEST
Moon 10:35 AM CEST (5/16) 12:40 AM CEST (5/16)
Length of Visible Light 16h 47m
Length of Day
15h 28m
Waxing Crescent, 33% of the Moon is Illuminated
May 16
Waxing Crescent
May 18
First Quarter
May 25
Full
May 31
Last Quarter
Jun 8
New

Hourly Weather History & Observations

Time (CEST) Temp. Dew Point Humidity Pressure Visibility Wind Dir Wind Speed Gust Speed Precip Events Conditions
12:00 AM 60.8 °F 48.2 °F 63% 29.65 in - ESE 10.4 mph - N/A   Clear
1:00 AM 62.6 °F 48.2 °F 59% 29.65 in - ESE 10.4 mph - N/A   Clear
2:00 AM 59.0 °F 50.0 °F 72% 29.65 in - ESE 10.4 mph - N/A   Clear
3:00 AM 60.8 °F 50.0 °F 68% 29.65 in - East 10.4 mph - N/A   Clear
4:00 AM 59.0 °F 50.0 °F 72% 29.62 in - ESE 12.7 mph - N/A   Clear
5:00 AM 55.4 °F 50.0 °F 82% 29.62 in - East 9.2 mph - N/A   Clear
6:00 AM 53.6 °F 50.0 °F 88% 29.62 in - ESE 5.8 mph - N/A   Clear
7:00 AM 59.0 °F 50.0 °F 72% 29.62 in - SE 11.5 mph - N/A   Clear
8:00 AM 60.8 °F 51.8 °F 72% 29.62 in - SSE 16.1 mph - N/A   Clear
9:00 AM 64.4 °F 50.0 °F 59% 29.62 in 6.2 mi SSE 21.9 mph - N/A   Scattered Clouds
10:00 AM 66.2 °F 50.0 °F 56% 29.62 in - SE 16.1 mph - N/A   Clear
11:00 AM 68.0 °F 50.0 °F 52% 29.59 in - SSE 17.3 mph - N/A   Clear
12:00 PM 71.6 °F 50.0 °F 46% 29.59 in - SE 16.1 mph - N/A   Clear
1:00 PM 73.4 °F 51.8 °F 47% 29.56 in - South 17.3 mph 28.8 mph N/A   Clear
2:00 PM 73.4 °F 51.8 °F 47% 29.56 in - SSE 19.6 mph 34.5 mph N/A   Clear
3:00 PM 73.4 °F 50.0 °F 44% 29.56 in - SSE 18.4 mph 29.9 mph N/A   Clear
4:00 PM 73.4 °F 50.0 °F 44% 29.56 in - SSE 24.2 mph 36.8 mph N/A   Clear
5:00 PM 73.4 °F 51.8 °F 47% 29.53 in - SSE 17.3 mph - N/A   Clear
5:31 PM 71.6 °F 51.8 °F 50% 29.56 in - SE 17.3 mph 28.8 mph N/A   Clear
6:00 PM 71.6 °F 48.2 °F 43% 29.56 in - SSE 18.4 mph 29.9 mph N/A   Clear
7:00 PM 69.8 °F 50.0 °F 49% 29.56 in - SE 17.3 mph - N/A   Clear
8:00 PM 69.8 °F 48.2 °F 46% 29.53 in - SE 16.1 mph - N/A   Clear
9:00 PM 68.0 °F 50.0 °F 52% 29.53 in - SE 19.6 mph - N/A   Clear
9:08 PM 68.0 °F 50.0 °F 52% 29.53 in - SE 19.6 mph 32.2 mph N/A   Clear
10:00 PM 68.0 °F 51.8 °F 56% 29.53 in - SE 17.3 mph - N/A   Clear
11:00 PM 68.0 °F 51.8 °F 56% 29.53 in - SE 13.8 mph - N/A   Clear